Current weather by "City, St" or "zip code"  
 

Current Conditions: Cleveland / Cuyahoga, OH

Fair


62.0 F

Last Updated on Aug 10 2022, 12:30 am EDT
Humidity: 94%
Wind Speed: N 0.0 mph
Barometer 30.13 in
Dewpoint: 60.6 F
Visibility: 10.00 mi
Precip: --
Heat Index: NA
Wind Chill: NA
Current conditions at:

Cleveland / Cuyahoga, OH (KCGF)

Lat: 41.56667 Lon: 81.48333

Local Radar Image active severe weather and emergency alerts image image weather storm and storm spotter reports image weather observation monitoring service image
Local
Radar
Active
Alerts
Storm Reports Obs
Monitoring

Sign-up For Email & Text Message Weather Alert Notification Services



Advertise Here

Observation History for Cleveland / Cuyahoga, OH


Time Wind
(mph)
Vis
(mi)
Weather Precip (in) Temperature (F) Relative
Humidity
Wind
Chill
(F)
Heat
Index
(F)
Pressure
Air Dwpt altimeter
(in)
sea level
(mb)
Rmks
12:30 am EDT N 0.0 10.00 Fair -- 62.0 60.6 94% NA NA 30.13 M
12:15 am EDT N 0.0 10.00 Fair -- 61.0 60.1 96% NA NA 30.13 M
11:55 pm EDT N 0.0 10.00 Fair -- 61.0 59.5 95% NA NA 30.13 M
8:45 pm EDT N 5.8 10.00 Partly Cloudy -- 68.0 60.8 78% NA NA 30.09 M
7:45 pm EDT N 5.8 10.00 Partly Cloudy -- 70.0 60.8 73% NA NA 30.08 M
6:45 pm EDT N 6.9 10.00 Partly Cloudy -- 72.0 60.8 69% NA NA 30.06 M
5:45 pm EDT N 5.8 10.00 Partly Cloudy -- 73.0 60.8 65% NA NA 30.06 M
4:45 pm EDT N 5.8 10.00 Mostly Cloudy -- 72.0 59.0 65% NA NA 30.07 M
3:45 pm EDT N 5.8 10.00 Mostly Cloudy -- 73.0 60.8 65% NA NA 30.07 M
2:45 pm EDT N 9.2 10.00 Mostly Cloudy -- 72.0 60.8 69% NA NA 30.09 M
1:45 pm EDT N 4.6 10.00 Mostly Cloudy -- 72.0 62.6 73% NA NA 30.10 M
12:45 pm EDT N 8.1 10.00 Overcast -- 72.0 62.6 73% NA NA 30.10 M
11:45 am EDT N 8.1 10.00 Overcast -- 70.0 62.6 78% NA NA 30.09 M
10:45 am EDT NE 5.8 10.00 Overcast -- 70.0 62.6 78% NA NA 30.08 M
9:45 am EDT E 3.5 10.00 Overcast -- 68.0 64.4 88% NA NA 30.07 M
8:45 am EDT NE 6.9 10.00 Overcast -- 66.0 64.4 94% NA NA 30.07 M
6:45 am EDT N 6.9 3.50 Drizzle Fog/Mist -- 66.0 64.4 94% NA NA 30.03 M
6:15 am EDT N 5.8 2.50 Drizzle Fog/Mist -- 66.0 65.3 98% NA NA 30.03 M
5:55 am EDT N 5.8 3.00 Light Drizzle Fog/Mist -- 66.0 65.1 98% NA NA 30.03 M
5:15 am EDT N 5.8 3.00 Light Drizzle Fog/Mist -- 66.0 65.1 98% NA NA 30.02 M
4:35 am EDT N 9.2 2.50 Light Drizzle Fog/Mist 00.01 67.0 65.7 96% NA NA 30.01 M
3:55 am EDT N 6.9 10.00 Light Rain 00.01 67.0 65.8 96% NA NA 29.99 M
3:35 am EDT N 10.4 5.00 Rain Fog/Mist -- 67.0 66.6 97% NA NA 29.98 M
3:15 am EDT N 6.9 10.00 Light Rain -- 68.0 67.5 97% NA NA 29.99 M

Regional Weather Observation


Cleveland, Burke Lakefront Airport, OH (KBKL)

Fair
70.0 F

Cleveland / Cuyahoga, OH (KCGF)

Fair
62.0 F

Cleveland Hopkins International Airport, OH (KCLE)

Mostly Cloudy
64.0 F

Portage County Airport, OH (KPOV)

Partly Cloudy
64.0 F

Akron, Akron Fulton International Airport, OH (KAKR)

Overcast
72.0 F

Lorain / Elyria, Lorain County Regional Airport, OH (KLPR)

Fair
64.0 F

Advertise Here


Advertise Here